Valparaiso, IN

9:46 PM CDT on May 25, 2018 (GMT -0500)
Porter County Municipal

Weather History for KVPZ - March, 2013

Change the Weather History Date:

Saturday, March 9, 2013

  Actual Average Record
Temperature  
Mean Temperature 36 °F 35 °F  
Max Temperature 44 °F 44 °F 75 °F (2000)
Min Temperature 27 °F 27 °F 0 °F (1978)
Degree Days  
Heating Degree Days 29 30  
Month to date heating degree days 315 282  
Since 1 July heating degree days 4706 5014  
Cooling Degree Days 0 0  
Month to date cooling degree days 0 0  
Year to date cooling degree days 0 0  
Moisture  
Dew Point 28 °F    
Average Humidity 71    
Maximum Humidity 77    
Minimum Humidity 63    
Precipitation  
Precipitation T in 0.07 in 1.99 in (1998)
Month to date precipitation 0.01 0.68  
Year to date precipitation 3.56 3.85  
Sea Level Pressure  
Sea Level Pressure 30.12 in    
Wind  
Wind Speed 9 mph (SE)    
Max Wind Speed 17 mph    
Max Gust Speed 23 mph    
Visibility 10 miles    
Events      
T = Trace of Precipitation, MM = Missing Value Source: NWS Daily Summary

Daily Weather History Graph

Daily Weather History Graph

Search for Another Location

Airport or City:

Astronomy

Mar. 09, 2013 Rise Set
Actual Time 6:09 AM CST 5:48 PM CST
Civil Twilight 5:41 AM CST 6:15 PM CST
Nautical Twilight 5:09 AM CST 6:47 PM CST
Astronomical Twilight 4:37 AM CST 7:20 PM CST
Moon 4:34 AM CST (3/9) 3:48 PM CST (3/9)
Length of Visible Light 12h 34m
Length of Day
11h 38m
Waning Crescent, 5% of the Moon is Illuminated
Mar 9
Waning Crescent
Mar 11
New
Mar 19
First Quarter
Mar 27
Full
Apr 2
Last Quarter

Hourly Weather History & Observations

Time (CST) Temp. Windchill Dew Point Humidity Pressure Visibility Wind Dir Wind Speed Gust Speed Precip Events Conditions
12:53 AM 28.0 °F 19.3 °F 21.0 °F 75% 30.34 in 10.0 mi ESE 9.2 mph - N/A   Clear
1:53 AM 28.0 °F 20.8 °F 19.9 °F 72% 30.32 in 10.0 mi ESE 6.9 mph - N/A   Clear
2:53 AM 28.0 °F 21.7 °F 21.0 °F 75% 30.30 in 10.0 mi ESE 5.8 mph - N/A   Clear
3:53 AM 28.0 °F 20.8 °F 21.0 °F 75% 30.29 in 10.0 mi ESE 6.9 mph - N/A   Clear
4:53 AM 30.9 °F 22.8 °F 24.1 °F 76% 30.27 in 10.0 mi SE 9.2 mph - N/A   Clear
5:53 AM 32.0 °F 25.6 °F 25.0 °F 75% 30.28 in 10.0 mi SSE 6.9 mph - N/A   Mostly Cloudy
9:53 AM 36.0 °F 27.5 °F 28.0 °F 73% 30.25 in 10.0 mi SSE 12.7 mph - N/A   Overcast
10:53 AM 37.9 °F 30.9 °F 28.0 °F 68% 30.20 in 10.0 mi SE 10.4 mph 18.4 mph N/A   Partly Cloudy
11:53 AM 39.9 °F 33.4 °F 28.0 °F 63% 30.19 in 10.0 mi South 10.4 mph 19.6 mph N/A   Mostly Cloudy
12:53 PM 39.9 °F 31.4 °F 28.9 °F 65% 30.13 in 10.0 mi SSE 16.1 mph 21.9 mph N/A   Scattered Clouds
1:53 PM 39.0 °F 31.4 °F 30.0 °F 70% 30.10 in 10.0 mi SE 12.7 mph - N/A   Overcast
2:53 PM 39.9 °F 32.9 °F 30.0 °F 68% 30.07 in 10.0 mi SE 11.5 mph - N/A   Overcast
3:53 PM 39.9 °F 32.9 °F 30.9 °F 70% 30.04 in 10.0 mi SE 11.5 mph 23.0 mph N/A   Mostly Cloudy
4:53 PM 41.0 °F 34.7 °F 32.0 °F 70% 30.02 in 10.0 mi SE 10.4 mph - N/A   Mostly Cloudy
6:53 PM 39.9 °F 33.9 °F 33.1 °F 77% 29.99 in 10.0 mi ESE 9.2 mph - N/A   Partly Cloudy
7:53 PM 39.9 °F 35.1 °F 33.1 °F 77% 29.96 in 10.0 mi SE 6.9 mph - N/A   Clear
8:53 PM 41.0 °F 38.0 °F 33.1 °F 73% 29.96 in 10.0 mi SE 4.6 mph - N/A   Clear
9:53 PM 43.0 °F 38.8 °F 33.1 °F 68% 29.95 in 10.0 mi SSE 6.9 mph - N/A   Clear
10:53 PM 43.0 °F 38.2 °F 33.1 °F 68% 29.92 in 10.0 mi SSE 8.1 mph - N/A   Clear
11:53 PM 44.1 °F 39.5 °F 33.1 °F 65% 29.91 in 10.0 mi SSE 8.1 mph - N/A   Overcast